This is the latest recevied weather packets stored in our database for station/object K4CRS-13. If no packets are shown the sender has not sent any weather packets the latest 10 day(s).
| Time | Temp. | Humidity | Pressure | Rain* | Wind** | Luminosity | Snow |
|---|---|---|---|---|---|---|---|
| 1787703932 | 28.33° C | 71% | 1050.5 hPa | 0 mm | - | 4 W/m² | - |
| 1787703628 | 28.89° C | 68% | 1050.7 hPa | 0 mm | - | 6 W/m² | - |
| 1787703323 | 29.44° C | 66% | 1050.6 hPa | 0 mm | - | 10 W/m² | - |
| 1787703018 | 30° C | 64% | 1050.6 hPa | 0 mm | - | 13 W/m² | - |
| 1787702714 | 30.56° C | 62% | 1050.5 hPa | 0 mm | - | 18 W/m² | - |
| 1787702409 | 30.56° C | 61% | 1050.6 hPa | 0 mm | - | 22 W/m² | - |
| 1787702109 | 31.11° C | 61% | 1050.4 hPa | 0 mm | - | 27 W/m² | - |
| 1787701806 | 30.56° C | 60% | 1050.6 hPa | 0 mm | - | 33 W/m² | - |
| 1787701501 | 31.11° C | 58% | 1050.5 hPa | 0 mm | - | 39 W/m² | - |
| 1787701201 | 31.11° C | 58% | 1050.6 hPa | 0 mm | - | 48 W/m² | - |
| 1787700897 | 31.11° C | 56% | 1050.6 hPa | 0 mm | - | 62 W/m² | - |
| 1787700592 | 32.22° C | 54% | 1050.9 hPa | 0 mm | - | 75 W/m² | - |
| 1787700288 | 32.78° C | 53% | 1050.8 hPa | 0 mm | - | 90 W/m² | - |
| 1787699985 | 32.78° C | 49% | 1051 hPa | 0 mm | - | 106 W/m² | - |
| 1787699681 | 32.78° C | 48% | 1050.7 hPa | 0 mm | - | 111 W/m² | - |
| 1787699376 | 33.33° C | 49% | 1050.8 hPa | 0 mm | - | 117 W/m² | - |
| 1787699071 | 33.33° C | 49% | 1050.6 hPa | 0 mm | - | 140 W/m² | - |
| 1787698766 | 33.33° C | 50% | 1050.6 hPa | 0 mm | - | 173 W/m² | - |
| 1787698463 | 33.33° C | 49% | 1050.4 hPa | 0 mm | - | 180 W/m² | - |
| 1787698158 | 33.33° C | 49% | 1050.6 hPa | 0 mm | - | 191 W/m² | - |
| 1787697853 | 33.89° C | 48% | 1050.7 hPa | 0 mm | - | 209 W/m² | - |
| 1787697548 | 33.89° C | 47% | 1050.8 hPa | 0 mm | - | 218 W/m² | - |
| 1787697244 | 33.89° C | 48% | 1050.8 hPa | 0 mm | - | 210 W/m² | - |
| 1787696939 | 33.33° C | 49% | 1050.7 hPa | 0 mm | - | 226 W/m² | - |
| 1787696635 | 33.89° C | 50% | 1050.8 hPa | 0 mm | - | 237 W/m² | - |
* Rain latest hour (hover to see other rain measurements)
** Current wind speed in m/s (hover to see current wind gust speed)